Location: Spaichingen
(48.0400°N, 8.4300°E)
Time: 22:45:48
(UTC+01:00)

ISS - Pass Details

Date: 24 January 2019
Orbit: 403 x 411 km, 51.6° (Epoch: 16 February)

Event Time Altitude Azimuth Distance (km) Brightness Sun altitude
Rises 17:43:09 0° 188° (S) 2,317 0.5 -5.4°
Reaches altitude 10° 17:46:33 10° 150° (SSE) 1,466 -1.1 -5.9°
Maximum altitude 17:47:29 11° 133° (SE) 1,414 -1.3 -6.0°
Drops below altitude 10° 17:48:25 10° 117° (ESE) 1,471 -1.4 -6.2°
Enters shadow 17:50:01 - 95° (E) 1,785 -1.1 -6.4°
